Regional Weather Roundup
Issued by NWS Portland, ME

Current Version | Previous Version | Text Only | Print | Product List | Glossary Off
Versions: 1 2 3 4 5 6 7 8 9 10 11 12 13 14 15 16 17 18 19 20 21 22 23 24 25 26 27 28 29 30 31 32 33 34 35 36 37 38 39 40 41 42 43 44 45 46 47 48 49 50
828 ASUS41 KGYX 221005 RWRGYX WEATHER ROUNDUP FOR MAINE AND NEW HAMPSHIRE NATIONAL WEATHER SERVICE GRAY ME 600 AM EDT THU JUN 22 2017 MEZ002-005-006-010-012-015-018-020-021-024-026-027-029-221100- MAINE CITY SKY/WX TMP DP RH WIND PRES REMARKS PORTLAND CLEAR 57 52 83 W7 29.92R SANFORD CLEAR 56 53 90 W7 29.94R BAR HARBOR SUNNY 58 50 75 SW3 29.88R WISCASSET CLEAR 55 53 93 CALM 29.92R ROCKLAND CLEAR 52 51 97 W3 29.90R FRYEBURG CLEAR 53 52 96 CALM 29.93R LEWISTONAUBURN CLEAR 51 50 96 CALM 29.93R AUGUSTA CLEAR 61 52 72 W5 29.91R WATERVILLE CLEAR 58 54 86 W7 29.88R BANGOR SUNNY 56 50 80 W5 29.87S GREENVILLE N/A 55 49 80 CALM 29.86R MILLINOCKET SUNNY 55 51 86 CALM 29.85R HOULTON SUNNY 55 51 86 SW6 29.79R PRESQUE ISLE SUNNY 54 50 86 SW8 29.78R FRENCHVILLE SUNNY 51 47 86 W14 29.74R CARIBOU SUNNY 53 49 86 SW8 29.75R $$ NHZ002-005-008-009-011-012-014-221100- NEW HAMPSHIRE CITY SKY/WX TMP DP RH WIND PRES REMARKS PORTSMOUTH CLEAR 60 55 83 W5 29.93R ROCHESTER CLEAR 62 51 67 W6 29.93R NASHUA CLEAR 56 52 86 NW3 29.97R MANCHESTER CLEAR 59 51 75 VRB3 29.94R CONCORD CLEAR 53 51 93 CALM 29.95S LACONIA CLEAR N/A N/A N/A CALM 29.95S PLYMOUTH FAIR 54 51 90 CALM 29.96R BERLIN MOCLDY 49 47 93 CALM 29.95R FOG WHITEFIELD CLEAR 47 45 93 CALM 29.97R JAFFREY CLEAR 51 51 100 S3 29.99R KEENE CLEAR 49 49 100 CALM 29.99R FOG LEBANON CLEAR 51 50 96 CALM 29.96R MT WASHINGTON FOG 39 39 100 W45 N/A VSB 1/16 $$ VTZ005-007-008-221100- VERMONT CITY SKY/WX TMP DP RH WIND PRES REMARKS ST JOHNSBURY N/A 50 50 100 MISG 29.95R BURLINGTON PTCLDY 56 54 93 CALM 29.95R $$ MAZ007-012-024-CTZ003-RIZ002-NYZ038-NYZ072-221100- SOUTHERN NEW ENGLAND AND NY CITY SKY/WX TMP DP RH WIND PRES REMARKS BOSTON CLEAR 66 52 60 W8 29.96 WORCESTER CLEAR 59 48 67 W8 29.99R NANTUCKET CLEAR 62 58 86 NW9 29.96R PROVIDENCE PTCLDY 61 55 81 NW3 29.98R HARTFORD PTCLDY 58 51 78 SW5 30.00R ALBANY CLEAR 56 51 84 CALM 30.01R NEW YORK CITY MOCLDY 68 57 68 E3 29.99R $$ ANZ081-ANZ082-ANZ150-NHZ014-MEZ023>029-221100- COASTAL MARINE OBSERVATIONS STATION/POSITION TIME TEMP WIND PRES WAVE AIR SEA DIR/SP/G HT/PER (UTC) (F) (DEG/KT/KT) (MB) (FT/S) MATINICUS ROCK 0900 62 300/ 9/ 9 1011.6R ISLE OF SHOALS 0900 62 280/ 11/ 12 1012.8R JEFFREYS LEDGE 0906 59 N/A 2/ 7 CASHES LEDGE BUO 0950 61 57 1012.9R 3/ 7 GEORGES BANK BUO 0850 54 54 1012.4 4/ 7 $$ .............KEY.............. WCI - WIND CHILL TC - TEMPERATURE IN CELSIUS VSB - VISIBILITY IN MILES HX - HEAT INDEX FAIR- INDICATES FEW OR NO CLOUDS BELOW 12,000 FT, WITH NO SIGNIFICANT WEATHER AND/OR OBSTRUCTIONS TO VISIBILITY.

USA.gov is the U.S. government's official web portal to all federal, state and local government web resources and services.